Location: Newark
(37.0133°S, 81.3511°E)
Time: 02:35:40
(UTC+00:00)

N. Korean satellite - Pass Details

Date: 26 January 2020
Orbit: 456 x 505 km, 97.2° (Epoch: 26 February)

Event Time Altitude Azimuth Distance (km) Brightness Sun altitude
Rises 22:56:37 0° 39° (NE) 2,601 10.4 -9.1°
Reaches altitude 10° 22:58:55 10° 51° (NE) 1,727 9.6 -8.7°
Maximum altitude 23:02:02 26° 108° (ESE) 1,045 9.3 -8.2°
Drops below altitude 10° 23:05:11 10° 165° (SSE) 1,746 10.1 -7.6°
Sets 23:07:32 0° 178° (S) 2,636 10.8 -7.2°
